GW4503 Weather Reports


time (UTC)temp
F
wind
direction
speed
knots
gust
knots
rain 1hr
in
rain 24hr
in
rain mn
in
humidity
%
barometer
mb
20260504081527 0 0.0 0.0 0.00 0.00 0.00 1016.3
20260504044537 0 0.0 0.0 0.00 0.00 0.00 1016.1
20260504043034 0 0.0 0.0 0.00 0.00 0.00 1016.0
20260504041529 0 0.0 0.0 0.00 0.00 0.00 1015.9
20260504040034 0 0.0 0.0 0.00 0.00 0.00 1015.7
20260504034538 0 0.0 0.0 0.00 0.00 0.00 1015.5
20260504033041 0 0.0 0.0 0.00 0.00 0.00 1015.5
20260504031532 0 0.0 0.0 0.00 0.00 0.00 1015.3
20260504030030 0 0.0 0.0 0.00 0.00 0.00 1015.3
20260504024533 0 0.0 0.0 0.00 0.00 0.00 1015.3
20260504023030 0 0.0 0.0 0.00 0.00 0.00 1015.2
20260504021534 0 0.0 0.0 0.00 0.00 0.00 1015.3
20260504020028 0 0.0 0.0 0.00 0.00 0.00 1015.1
20260504014530 0 0.0 0.0 0.00 0.00 0.00 1015.0
20260504013037 0 0.0 0.0 0.00 0.00 0.00 1015.0
20260504011532 0 0.0 0.0 0.00 0.00 0.00 1014.8
20260504010041 0 0.0 0.0 0.00 0.00 0.00 1014.6
20260504004531 0 0.0 0.0 0.00 0.00 0.00 1014.5
20260504003030 0 0.0 0.0 0.00 0.00 0.00 1014.3
20260504001532 0 0.0 0.0 0.00 0.00 0.00 1014.1
20260504000031 0 0.0 0.0 0.00 0.00 0.00 1014.0
20260503234525 60 219 10.4 14.8 0.00 0.00 0.00 48 1014.0
20260503233026 60 238 10.4 15.6 0.00 0.00 0.00 48 1013.8
20260503231514 60 245 11.3 18.2 0.00 0.00 0.00 46 1013.8
20260503230018 60 269 9.6 15.6 0.00 0.00 0.00 45 1013.7
20260503224527 60 257 10.4 19.1 0.00 0.00 0.00 47 1013.9
20260503223025 60 275 9.6 16.5 0.00 0.00 0.00 44 1013.7
20260503221532 60 255 14.8 21.7 0.00 0.00 0.00 46 1013.9
20260503220018 59 249 13.0 22.6 0.00 0.00 0.00 45 1013.8
20260503214517 59 246 14.8 19.1 0.00 0.00 0.00 45 1013.8
20260503213030 59 291 7.8 18.2 0.00 0.00 0.00 46 1013.8
20260503211525 59 270 14.8 20.0 0.00 0.00 0.00 46 1013.8
20260503210026 58 267 15.6 20.9 0.00 0.00 0.00 50 1013.8
20260503204523 58 284 10.4 18.2 0.00 0.00 0.00 48 1013.9
20260503203020 58 265 11.3 16.5 0.00 0.00 0.00 48 1014.0
20260503201525 57 290 13.0 21.7 0.00 0.00 0.00 50 1014.1
20260503200012 57 242 13.9 24.3 0.00 0.00 0.00 49 1014.2
20260503194523 57 247 17.4 28.7 0.00 0.00 0.00 47 1014.0
20260503193028 56 246 11.3 25.2 0.00 0.00 0.00 47 1014.3
20260503191520 56 249 15.6 23.5 0.00 0.00 0.00 47 1014.3
20260503190017 56 259 14.8 21.7 0.00 0.00 0.00 49 1014.4
20260503184522 55 250 12.2 23.5 0.00 0.00 0.00 47 1014.6
20260503183025 55 279 9.6 19.1 0.00 0.00 0.00 47 1014.6
20260503181528 54 258 15.6 23.5 0.00 0.00 0.00 49 1014.8
20260503180029 54 271 16.5 23.5 0.00 0.00 0.00 49 1014.9
20260503174525 53 276 11.3 22.6 0.00 0.00 0.00 53 1015.0
20260503173036 53 272 8.7 21.7 0.00 0.00 0.00 51 1015.2
20260503171516 52 269 9.6 19.1 0.00 0.00 0.00 51 1015.1